JAL140 KSFO-RJAA

Flight info

Callsign JAL140
Flight time N/A
Altitude 38000
Route GNNRR3 AMAKR REDWD 42N130W 48N140W 52N150W 53N160W 53N170W 54N180E 53N170E HUMSA M523 IPGUD Y802 OLDIV Y809 SUPOK SUPOKN
Aircraft B788/M-V/N

Departure

Time 2026-05-07 06:19
Airport San Francisco International Airport (KSFO)

Arrival

Time N/A
Airport Narita International Airport (RJAA)
Time Latitude Longitude Altitude Speed Heading
2026-05-07 05:48 37.61778 -122.38905 30 ft 0 kts 208°
2026-05-07 06:02 37.61788 -122.38898 30 ft 2 kts 208°
2026-05-07 06:02 37.61804 -122.38887 30 ft 3 kts 208°
2026-05-07 06:02 37.61822 -122.38875 30 ft 3 kts 208°
2026-05-07 06:02 37.61840 -122.38863 30 ft 3 kts 208°
2026-05-07 06:03 37.61858 -122.38850 30 ft 3 kts 208°
2026-05-07 06:03 37.61874 -122.38839 30 ft 3 kts 208°
2026-05-07 06:03 37.61876 -122.38838 30 ft 0 kts 208°
2026-05-07 06:04 37.61872 -122.38842 30 ft 1 kts 223°
2026-05-07 06:04 37.61867 -122.38857 30 ft 2 kts 252°
2026-05-07 06:04 37.61865 -122.38870 30 ft 2 kts 265°
2026-05-07 06:05 37.61877 -122.38915 30 ft 7 kts 295°
2026-05-07 06:05 37.61898 -122.38970 30 ft 7 kts 296°
2026-05-07 06:05 37.61918 -122.39019 30 ft 6 kts 298°
2026-05-07 06:05 37.61936 -122.39062 30 ft 6 kts 298°
2026-05-07 06:06 37.61958 -122.39115 30 ft 7 kts 298°
2026-05-07 06:06 37.61993 -122.39155 30 ft 7 kts 345°
2026-05-07 06:06 37.62034 -122.39142 30 ft 5 kts 21°
2026-05-07 06:06 37.62062 -122.39128 30 ft 4 kts 24°
2026-05-07 06:07 37.62086 -122.39114 30 ft 4 kts 25°
2026-05-07 06:07 37.62113 -122.39098 30 ft 5 kts 25°
2026-05-07 06:07 37.62143 -122.39080 30 ft 5 kts 25°
2026-05-07 06:07 37.62178 -122.39059 30 ft 6 kts 25°
2026-05-07 06:08 37.62215 -122.39033 30 ft 7 kts 37°
2026-05-07 06:08 37.62238 -122.38980 30 ft 7 kts 72°
2026-05-07 06:08 37.62253 -122.38919 30 ft 7 kts 72°
2026-05-07 06:08 37.62259 -122.38864 30 ft 6 kts 97°
2026-05-07 06:09 37.62239 -122.38808 30 ft 8 kts 117°
2026-05-07 06:09 37.62207 -122.38733 30 ft 11 kts 117°
2026-05-07 06:09 37.62168 -122.38639 30 ft 13 kts 117°
2026-05-07 06:09 37.62122 -122.38527 30 ft 15 kts 117°
2026-05-07 06:10 37.62068 -122.38400 30 ft 17 kts 118°
2026-05-07 06:10 37.62013 -122.38269 30 ft 16 kts 118°
2026-05-07 06:10 37.61964 -122.38153 30 ft 15 kts 118°
2026-05-07 06:10 37.61918 -122.38046 30 ft 13 kts 118°
2026-05-07 06:11 37.61877 -122.37949 30 ft 12 kts 118°
2026-05-07 06:11 37.61842 -122.37865 30 ft 10 kts 114°
2026-05-07 06:11 37.61818 -122.37786 30 ft 9 kts 110°
2026-05-07 06:11 37.61797 -122.37716 30 ft 8 kts 110°
2026-05-07 06:12 37.61777 -122.37650 30 ft 8 kts 110°
2026-05-07 06:12 37.61759 -122.37588 30 ft 7 kts 110°
2026-05-07 06:12 37.61742 -122.37531 30 ft 7 kts 112°
2026-05-07 06:12 37.61723 -122.37480 30 ft 6 kts 116°
2026-05-07 06:13 37.61698 -122.37421 30 ft 9 kts 118°
2026-05-07 06:13 37.61663 -122.37345 30 ft 11 kts 120°
2026-05-07 06:13 37.61621 -122.37248 30 ft 14 kts 117°
2026-05-07 06:13 37.61574 -122.37131 30 ft 16 kts 117°
2026-05-07 06:14 37.61519 -122.36996 30 ft 18 kts 117°
2026-05-07 06:14 37.61435 -122.36867 30 ft 20 kts 136°
2026-05-07 06:14 37.61350 -122.36718 30 ft 22 kts 116°
2026-05-07 06:14 37.61278 -122.36537 30 ft 24 kts 117°
2026-05-07 06:15 37.61198 -122.36344 30 ft 24 kts 117°
2026-05-07 06:15 37.61130 -122.36179 30 ft 17 kts 117°
2026-05-07 06:15 37.61090 -122.36060 30 ft 14 kts 91°
2026-05-07 06:15 37.61142 -122.35958 30 ft 16 kts 28°
2026-05-07 06:16 37.61254 -122.35888 30 ft 21 kts 27°
2026-05-07 06:16 37.61360 -122.35819 30 ft 12 kts 26°
2026-05-07 06:16 37.61390 -122.35816 30 ft 4 kts 333°
2026-05-07 06:16 37.61407 -122.35847 30 ft 0 kts 298°
2026-05-07 06:17 37.61407 -122.35848 30 ft 0 kts 298°
2026-05-07 06:18 37.61498 -122.36064 30 ft 62 kts 297°
2026-05-07 06:19 37.61820 -122.36833 30 ft 135 kts 297°
2026-05-07 06:19 37.62364 -122.38137 297 ft 186 kts 297°
2026-05-07 06:19 37.62993 -122.39644 1343 ft 207 kts 297°
2026-05-07 06:19 37.63646 -122.41399 2620 ft 234 kts 294°
2026-05-07 06:20 37.64322 -122.43441 3830 ft 275 kts 293°
2026-05-07 06:20 37.64851 -122.44975 4553 ft 295 kts 295°
2026-05-07 06:20 37.66465 -122.47983 5972 ft 327 kts 310°
2026-05-07 06:20 37.67958 -122.50148 6447 ft 318 kts 308°
2026-05-07 06:21 37.69282 -122.52363 6940 ft 327 kts 304°
2026-05-07 06:21 37.70640 -122.54807 7458 ft 348 kts 303°
2026-05-07 06:21 37.72018 -122.57349 7961 ft 350 kts 302°
2026-05-07 06:21 37.73400 -122.59903 8464 ft 357 kts 302°
2026-05-07 06:22 37.74823 -122.62507 8968 ft 361 kts 303°
2026-05-07 06:22 37.77237 -122.66834 9799 ft 367 kts 303°
2026-05-07 06:22 37.79247 -122.70356 10471 ft 369 kts 304°
2026-05-07 06:23 37.80837 -122.72924 10965 ft 372 kts 308°
2026-05-07 06:23 37.82661 -122.75220 11468 ft 377 kts 315°
2026-05-07 06:23 37.84700 -122.77388 11979 ft 380 kts 319°
2026-05-07 06:23 37.86819 -122.79408 12482 ft 383 kts 321°
2026-05-07 06:24 37.88980 -122.81332 12979 ft 386 kts 322°
2026-05-07 06:24 37.91213 -122.83240 13481 ft 388 kts 323°
2026-05-07 06:24 37.93485 -122.85135 13984 ft 391 kts 324°
2026-05-07 06:24 37.95778 -122.87025 14487 ft 394 kts 324°
2026-05-07 06:25 37.97309 -122.88280 14820 ft 396 kts 324°
2026-05-07 06:25 37.99628 -122.90179 15322 ft 398 kts 324°
2026-05-07 06:25 38.01971 -122.92098 15825 ft 401 kts 324°
2026-05-07 06:25 38.04323 -122.94028 16327 ft 404 kts 324°
2026-05-07 06:26 38.06660 -122.95952 16823 ft 407 kts 324°
2026-05-07 06:26 38.09060 -122.97932 17329 ft 410 kts 324°
2026-05-07 06:26 38.11437 -122.99900 17827 ft 413 kts 324°
2026-05-07 06:26 38.14665 -123.02581 18498 ft 416 kts 324°
2026-05-07 06:27 38.17100 -123.04607 19000 ft 419 kts 324°
2026-05-07 06:27 38.19530 -123.06635 19498 ft 422 kts 324°
2026-05-07 06:27 38.22001 -123.08700 20001 ft 425 kts 324°
2026-05-07 06:27 38.24483 -123.10777 20503 ft 428 kts 324°
2026-05-07 06:28 38.26984 -123.12875 21006 ft 432 kts 324°
2026-05-07 06:28 38.29504 -123.14990 21508 ft 435 kts 324°
2026-05-07 06:28 38.32037 -123.17120 22010 ft 438 kts 324°
2026-05-07 06:28 38.34596 -123.19273 22513 ft 441 kts 324°
2026-05-07 06:29 38.37166 -123.21437 23014 ft 445 kts 324°
2026-05-07 06:29 38.39723 -123.23594 23510 ft 448 kts 324°
2026-05-07 06:29 38.41450 -123.25051 23843 ft 450 kts 324°
2026-05-07 06:29 38.44976 -123.28030 24517 ft 454 kts 324°
2026-05-07 06:30 38.47615 -123.30261 25017 ft 458 kts 324°
2026-05-07 06:30 38.50249 -123.32491 25514 ft 461 kts 324°
2026-05-07 06:30 38.52949 -123.34778 25995 ft 465 kts 324°
2026-05-07 06:30 38.55658 -123.37075 26452 ft 469 kts 324°
2026-05-07 06:31 38.58384 -123.39389 26905 ft 472 kts 324°
2026-05-07 06:31 38.61127 -123.41720 27356 ft 475 kts 324°
2026-05-07 06:31 38.62964 -123.43281 27657 ft 477 kts 324°
2026-05-07 06:31 38.65736 -123.45639 28108 ft 480 kts 324°
2026-05-07 06:32 38.68530 -123.48019 28559 ft 484 kts 324°
2026-05-07 06:32 38.71344 -123.50418 29012 ft 487 kts 324°
2026-05-07 06:32 38.75095 -123.53620 29610 ft 491 kts 324°
2026-05-07 06:32 38.77023 -123.55267 29915 ft 493 kts 324°
2026-05-07 06:33 38.79890 -123.57719 30366 ft 497 kts 324°
2026-05-07 06:33 38.82736 -123.60154 30812 ft 499 kts 324°
2026-05-07 06:33 38.85632 -123.62636 31263 ft 503 kts 324°
2026-05-07 06:33 38.88558 -123.65146 31715 ft 506 kts 324°
2026-05-07 06:34 38.91492 -123.67666 32166 ft 509 kts 324°
2026-05-07 06:34 38.94433 -123.70194 32617 ft 507 kts 324°
2026-05-07 06:34 38.97338 -123.72719 33064 ft 502 kts 322°
2026-05-07 06:34 38.99926 -123.75695 33507 ft 497 kts 311°
2026-05-07 06:35 39.02093 -123.79152 33966 ft 496 kts 304°
2026-05-07 06:35 39.03950 -123.82833 34419 ft 496 kts 300°
2026-05-07 06:35 39.05642 -123.86722 34876 ft 497 kts 297°
2026-05-07 06:35 39.07211 -123.90704 35332 ft 497 kts 295°
2026-05-07 06:36 39.08698 -123.94725 35785 ft 498 kts 294°
2026-05-07 06:36 39.10146 -123.98782 36237 ft 498 kts 293°
2026-05-07 06:36 39.11554 -124.02801 36682 ft 498 kts 293°
2026-05-07 06:36 39.12968 -124.06865 37131 ft 497 kts 293°
2026-05-07 06:37 39.14382 -124.10931 37581 ft 497 kts 293°
2026-05-07 06:37 39.15808 -124.15015 37878 ft 500 kts 293°
2026-05-07 06:37 39.18717 -124.23273 38000 ft 512 kts 293°
2026-05-07 06:38 39.21671 -124.31542 37999 ft 499 kts 294°
2026-05-07 06:38 39.24575 -124.39578 38000 ft 496 kts 294°
2026-05-07 06:39 39.27502 -124.47625 38000 ft 494 kts 294°
2026-05-07 06:39 39.30419 -124.55611 38000 ft 493 kts 294°
2026-05-07 06:40 39.33349 -124.63616 38000 ft 492 kts 294°
2026-05-07 06:40 39.36286 -124.71628 38000 ft 492 kts 294°
2026-05-07 06:41 39.39215 -124.79624 38000 ft 492 kts 294°
2026-05-07 06:41 39.42083 -124.87460 38000 ft 490 kts 294°
2026-05-07 06:42 39.45004 -124.95452 38000 ft 489 kts 294°
2026-05-07 06:42 39.47909 -125.03420 38000 ft 489 kts 294°
2026-05-07 06:43 39.50809 -125.11389 38000 ft 489 kts 294°
2026-05-07 06:43 39.53688 -125.19320 38000 ft 489 kts 294°
2026-05-07 06:44 39.56574 -125.27293 38000 ft 489 kts 294°
2026-05-07 06:44 39.59469 -125.35310 38000 ft 489 kts 294°
2026-05-07 06:45 39.62339 -125.43278 38000 ft 488 kts 294°
2026-05-07 06:45 39.65214 -125.51282 38000 ft 488 kts 294°
2026-05-07 06:46 39.68067 -125.59247 38000 ft 488 kts 294°
2026-05-07 06:46 39.70946 -125.67306 38000 ft 488 kts 294°
2026-05-07 06:47 39.73787 -125.75280 38000 ft 488 kts 294°
2026-05-07 06:47 39.76644 -125.83325 38000 ft 488 kts 294°
2026-05-07 06:48 39.79482 -125.91335 38000 ft 488 kts 293°
2026-05-07 06:48 39.82338 -125.99419 38000 ft 488 kts 293°
2026-05-07 06:49 39.85171 -126.07465 38000 ft 488 kts 293°
2026-05-07 06:49 39.88000 -126.15517 38000 ft 488 kts 293°
2026-05-07 06:50 39.90804 -126.23526 38000 ft 488 kts 293°
2026-05-07 06:50 39.93631 -126.31625 38000 ft 488 kts 293°
2026-05-07 06:51 39.96432 -126.39674 38000 ft 488 kts 293°
2026-05-07 06:51 39.99326 -126.47742 37999 ft 489 kts 296°
2026-05-07 06:52 40.02935 -126.55223 38001 ft 491 kts 303°
2026-05-07 06:52 40.07018 -126.62413 38000 ft 492 kts 306°
2026-05-07 06:53 40.11269 -126.69466 38000 ft 492 kts 307°
2026-05-07 06:53 40.15559 -126.76465 38000 ft 492 kts 307°
2026-05-07 06:54 40.19823 -126.83418 38000 ft 491 kts 307°
2026-05-07 06:54 40.24109 -126.90448 38000 ft 491 kts 307°
2026-05-07 06:55 40.28336 -126.97428 38000 ft 491 kts 307°
2026-05-07 06:55 40.32592 -127.04501 38000 ft 491 kts 306°
2026-05-07 06:56 40.36816 -127.11563 38000 ft 491 kts 306°
2026-05-07 06:56 40.41002 -127.18594 38000 ft 491 kts 306°
2026-05-07 06:57 40.45214 -127.25697 38000 ft 491 kts 306°
2026-05-07 06:57 40.49422 -127.32820 38000 ft 491 kts 306°
2026-05-07 06:58 40.53595 -127.39906 38000 ft 491 kts 306°
2026-05-07 06:58 40.57784 -127.47040 38000 ft 491 kts 306°
2026-05-07 06:59 40.61944 -127.54144 38000 ft 491 kts 306°
2026-05-07 06:59 40.66105 -127.61267 38000 ft 491 kts 306°
2026-05-07 07:00 40.70273 -127.68422 38000 ft 491 kts 306°
2026-05-07 07:00 40.74432 -127.75577 38000 ft 491 kts 306°
2026-05-07 07:01 40.78596 -127.82758 38000 ft 491 kts 306°
2026-05-07 07:01 40.82748 -127.89936 38000 ft 491 kts 306°
2026-05-07 07:02 40.86202 -127.95921 38000 ft 491 kts 306°
2026-05-07 07:02 40.90334 -128.03095 38000 ft 491 kts 306°
2026-05-07 07:03 40.94473 -128.10297 38000 ft 491 kts 305°
2026-05-07 07:03 40.98605 -128.17506 38000 ft 491 kts 305°
2026-05-07 07:04 41.02737 -128.24730 38000 ft 491 kts 305°
2026-05-07 07:04 41.06873 -128.31979 38000 ft 491 kts 305°
2026-05-07 07:05 41.10974 -128.39184 38000 ft 491 kts 305°
2026-05-07 07:05 41.15106 -128.46460 38000 ft 491 kts 305°
2026-05-07 07:06 41.19198 -128.53683 38000 ft 491 kts 305°
2026-05-07 07:06 41.23313 -128.60963 38000 ft 491 kts 305°
2026-05-07 07:07 41.27407 -128.68226 38000 ft 491 kts 305°
2026-05-07 07:07 41.31493 -128.75488 38000 ft 491 kts 305°
2026-05-07 07:08 41.35609 -128.82823 38000 ft 491 kts 305°
2026-05-07 07:08 41.39678 -128.90091 38000 ft 491 kts 305°
2026-05-07 07:09 41.43764 -128.97408 38000 ft 491 kts 305°
2026-05-07 07:09 41.47855 -129.04751 38000 ft 491 kts 305°
2026-05-07 07:10 41.51904 -129.12036 38000 ft 491 kts 305°
2026-05-07 07:10 41.55967 -129.19365 38000 ft 491 kts 304°
2026-05-07 07:11 41.60038 -129.26724 38000 ft 491 kts 304°
2026-05-07 07:11 41.64097 -129.34080 38000 ft 491 kts 304°
2026-05-07 07:12 41.68147 -129.41439 38000 ft 491 kts 304°
2026-05-07 07:12 41.72213 -129.48843 38000 ft 491 kts 304°
2026-05-07 07:13 41.76236 -129.56189 38000 ft 491 kts 304°
2026-05-07 07:13 41.80278 -129.63588 38000 ft 491 kts 304°
2026-05-07 07:14 41.84319 -129.71004 38000 ft 491 kts 304°
2026-05-07 07:14 41.88347 -129.78415 38000 ft 491 kts 304°
2026-05-07 07:15 41.92367 -129.85832 38000 ft 491 kts 304°
2026-05-07 07:15 41.96363 -129.93227 38000 ft 491 kts 304°
2026-05-07 07:16 42.00560 -130.00532 38000 ft 492 kts 308°
2026-05-07 07:16 42.05098 -130.07413 38000 ft 493 kts 310°
2026-05-07 07:17 42.09785 -130.14128 38000 ft 493 kts 311°
2026-05-07 07:17 42.14566 -130.20847 38000 ft 493 kts 312°
2026-05-07 07:18 42.19311 -130.27490 38000 ft 493 kts 312°
2026-05-07 07:18 42.24085 -130.34188 38000 ft 493 kts 312°
2026-05-07 07:19 42.28828 -130.40870 38000 ft 493 kts 311°
2026-05-07 07:19 42.33545 -130.47545 38000 ft 493 kts 311°
2026-05-07 07:20 42.38292 -130.54292 38000 ft 493 kts 311°
2026-05-07 07:20 42.43011 -130.61025 38000 ft 493 kts 311°
2026-05-07 07:21 42.47710 -130.67753 38000 ft 493 kts 311°
2026-05-07 07:21 42.52424 -130.74525 38000 ft 493 kts 311°
2026-05-07 07:22 42.57114 -130.81281 38000 ft 493 kts 311°
2026-05-07 07:22 42.61815 -130.88072 38000 ft 493 kts 311°
2026-05-07 07:23 42.66516 -130.94883 38000 ft 492 kts 311°
2026-05-07 07:23 42.71181 -131.01658 38000 ft 492 kts 311°
2026-05-07 07:24 42.75881 -131.08501 38000 ft 492 kts 311°
2026-05-07 07:24 42.80542 -131.15305 38000 ft 492 kts 311°
2026-05-07 07:25 42.87548 -131.25563 38000 ft 492 kts 311°
2026-05-07 07:26 42.92215 -131.32416 38000 ft 492 kts 311°
2026-05-07 07:26 42.96895 -131.39306 38000 ft 492 kts 311°
2026-05-07 07:27 43.01534 -131.46152 38000 ft 492 kts 311°
2026-05-07 07:27 43.06197 -131.53050 38000 ft 492 kts 311°
2026-05-07 07:28 43.10853 -131.59953 38000 ft 492 kts 310°
2026-05-07 07:28 43.14710 -131.65686 38000 ft 492 kts 310°
2026-05-07 07:29 43.19359 -131.72610 38000 ft 492 kts 310°
2026-05-07 07:29 43.24004 -131.79545 38000 ft 492 kts 310°
2026-05-07 07:30 43.28654 -131.86505 38000 ft 492 kts 310°
2026-05-07 07:30 43.33252 -131.93403 38000 ft 492 kts 310°
2026-05-07 07:31 43.37871 -132.00351 38000 ft 492 kts 310°
2026-05-07 07:31 43.42507 -132.07340 38000 ft 492 kts 310°
2026-05-07 07:32 43.47114 -132.14303 38000 ft 492 kts 310°
2026-05-07 07:32 43.51735 -132.21305 38000 ft 492 kts 310°
2026-05-07 07:33 43.56327 -132.28278 38000 ft 492 kts 310°
2026-05-07 07:33 43.60939 -132.35300 38000 ft 492 kts 310°
2026-05-07 07:34 43.65548 -132.42334 38000 ft 492 kts 310°
2026-05-07 07:34 43.70128 -132.49343 38000 ft 492 kts 310°
2026-05-07 07:35 43.74716 -132.56379 38000 ft 492 kts 310°
2026-05-07 07:35 43.79311 -132.63444 38000 ft 492 kts 310°
2026-05-07 07:36 43.83896 -132.70512 38000 ft 492 kts 310°
2026-05-07 07:36 43.88477 -132.77592 38000 ft 492 kts 310°
2026-05-07 07:37 43.93017 -132.84624 38000 ft 492 kts 310°
2026-05-07 07:37 43.97584 -132.91717 38000 ft 492 kts 310°
2026-05-07 07:38 44.02174 -132.98863 38000 ft 492 kts 310°
2026-05-07 07:38 44.06713 -133.05947 38000 ft 492 kts 310°
2026-05-07 07:39 44.11271 -133.13079 38000 ft 492 kts 310°
2026-05-07 07:39 44.15823 -133.20219 38000 ft 492 kts 309°
2026-05-07 07:40 44.20375 -133.27379 38000 ft 492 kts 309°
2026-05-07 07:40 44.24885 -133.34488 38000 ft 492 kts 309°
2026-05-07 07:41 44.29438 -133.41685 38000 ft 492 kts 309°
2026-05-07 07:41 44.33973 -133.48872 38000 ft 492 kts 309°
2026-05-07 07:42 44.38474 -133.56022 38000 ft 492 kts 309°
2026-05-07 07:42 44.43002 -133.63234 38000 ft 492 kts 309°
2026-05-07 07:43 44.47526 -133.70457 38000 ft 492 kts 309°
2026-05-07 07:43 44.52045 -133.77691 38000 ft 492 kts 309°
2026-05-07 07:44 44.56551 -133.84923 38000 ft 492 kts 309°
2026-05-07 07:44 44.61060 -133.92178 38000 ft 492 kts 309°
2026-05-07 07:45 44.65531 -133.99390 38000 ft 492 kts 309°
2026-05-07 07:45 44.70041 -134.06684 38000 ft 492 kts 309°
2026-05-07 07:46 44.74506 -134.13924 38000 ft 492 kts 309°
2026-05-07 07:46 44.78997 -134.21224 38000 ft 492 kts 309°
2026-05-07 07:47 44.83482 -134.28535 38000 ft 492 kts 309°
2026-05-07 07:47 44.87943 -134.35825 38000 ft 492 kts 309°
2026-05-07 07:48 44.92427 -134.43171 38000 ft 492 kts 309°
2026-05-07 07:48 44.96896 -134.50512 38000 ft 492 kts 309°
2026-05-07 07:49 45.01360 -134.57864 38000 ft 492 kts 309°
2026-05-07 07:49 45.05783 -134.65169 38000 ft 492 kts 309°
2026-05-07 07:50 45.10240 -134.72547 38000 ft 492 kts 308°
2026-05-07 07:50 45.14695 -134.79942 38000 ft 492 kts 308°
2026-05-07 07:51 45.19125 -134.87315 38000 ft 492 kts 308°
2026-05-07 07:51 45.23549 -134.94698 38000 ft 492 kts 308°
2026-05-07 07:52 45.28001 -135.02145 38000 ft 492 kts 308°
2026-05-07 07:52 45.32402 -135.09530 38000 ft 492 kts 308°
2026-05-07 07:53 45.36832 -135.16981 38000 ft 492 kts 308°
2026-05-07 07:53 45.41242 -135.24417 38000 ft 492 kts 308°
2026-05-07 07:54 45.45655 -135.31880 38000 ft 492 kts 308°
2026-05-07 07:54 45.49339 -135.38124 38000 ft 492 kts 308°
2026-05-07 07:55 45.53750 -135.45619 38000 ft 492 kts 308°
2026-05-07 07:55 45.58125 -135.53074 38000 ft 492 kts 308°
2026-05-07 07:56 45.62523 -135.60588 38000 ft 492 kts 308°
2026-05-07 07:56 45.66891 -135.68070 38000 ft 492 kts 308°
2026-05-07 07:57 45.71268 -135.75588 38000 ft 492 kts 308°
2026-05-07 07:57 45.75642 -135.83121 38000 ft 491 kts 308°
2026-05-07 07:58 45.80022 -135.90684 38000 ft 491 kts 308°
2026-05-07 07:58 45.84398 -135.98263 38000 ft 491 kts 308°
2026-05-07 07:59 45.88748 -136.05814 38000 ft 491 kts 308°
2026-05-07 07:59 45.93093 -136.13380 38000 ft 491 kts 308°
2026-05-07 08:00 45.97438 -136.20965 38000 ft 491 kts 308°
2026-05-07 08:00 46.01795 -136.28592 38000 ft 491 kts 307°
2026-05-07 08:01 46.06132 -136.36204 38000 ft 491 kts 307°
2026-05-07 08:01 46.10479 -136.43855 38000 ft 491 kts 307°
2026-05-07 08:02 46.14807 -136.51495 38000 ft 491 kts 307°
2026-05-07 08:02 46.19110 -136.59111 38000 ft 491 kts 307°
2026-05-07 08:03 46.23442 -136.66797 38000 ft 491 kts 307°
2026-05-07 08:03 46.27758 -136.74480 38000 ft 491 kts 307°
2026-05-07 08:04 46.32054 -136.82146 38000 ft 491 kts 307°
2026-05-07 08:04 46.36375 -136.89878 38000 ft 491 kts 307°
2026-05-07 08:05 46.40672 -136.97589 38000 ft 491 kts 307°
2026-05-07 08:05 46.44964 -137.05312 38000 ft 491 kts 307°
2026-05-07 08:06 46.49225 -137.13002 38000 ft 491 kts 307°
2026-05-07 08:06 46.53504 -137.20745 38000 ft 491 kts 307°
2026-05-07 08:07 46.57792 -137.28526 38000 ft 491 kts 307°
2026-05-07 08:07 46.62064 -137.36300 38000 ft 491 kts 307°
2026-05-07 08:08 46.66307 -137.44042 38000 ft 491 kts 307°
2026-05-07 08:08 46.70590 -137.51881 38000 ft 491 kts 307°
2026-05-07 08:09 46.74847 -137.59693 38000 ft 491 kts 307°
2026-05-07 08:09 46.79068 -137.67461 38000 ft 491 kts 307°
2026-05-07 08:10 46.83329 -137.75325 38000 ft 491 kts 306°
2026-05-07 08:10 46.87575 -137.83184 38000 ft 491 kts 306°
2026-05-07 08:11 46.91800 -137.91027 38000 ft 491 kts 306°
2026-05-07 08:11 46.96013 -137.98869 38000 ft 491 kts 306°
2026-05-07 08:12 47.00237 -138.06755 38000 ft 491 kts 306°
2026-05-07 08:12 47.04459 -138.14659 38000 ft 491 kts 306°
2026-05-07 08:13 47.08676 -138.22577 38000 ft 491 kts 306°
2026-05-07 08:13 47.12854 -138.30444 38000 ft 491 kts 306°
2026-05-07 08:14 47.17051 -138.38370 38000 ft 491 kts 306°
2026-05-07 08:14 47.21254 -138.46329 38000 ft 491 kts 306°
2026-05-07 08:15 47.25460 -138.54318 38000 ft 491 kts 306°
2026-05-07 08:15 47.29639 -138.62278 38000 ft 491 kts 306°
2026-05-07 08:16 47.33800 -138.70227 38000 ft 491 kts 306°
2026-05-07 08:16 47.37969 -138.78216 38000 ft 491 kts 306°
2026-05-07 08:17 47.42138 -138.86228 38000 ft 491 kts 306°
2026-05-07 08:17 47.46294 -138.94237 38000 ft 491 kts 306°
2026-05-07 08:18 47.50453 -139.02276 38000 ft 491 kts 306°
2026-05-07 08:18 47.54601 -139.10318 38000 ft 491 kts 306°
2026-05-07 08:19 47.58731 -139.18349 38000 ft 491 kts 306°
2026-05-07 08:19 47.62868 -139.26418 38000 ft 491 kts 305°
2026-05-07 08:20 47.67000 -139.34499 38000 ft 491 kts 305°
2026-05-07 08:20 47.70428 -139.41224 38000 ft 491 kts 305°
2026-05-07 08:21 47.74550 -139.49332 38000 ft 491 kts 305°
2026-05-07 08:21 47.78670 -139.57461 38000 ft 491 kts 305°
2026-05-07 08:22 47.82770 -139.65576 38000 ft 491 kts 305°
2026-05-07 08:22 47.86883 -139.73741 38000 ft 491 kts 305°
2026-05-07 08:23 47.90982 -139.81905 38000 ft 491 kts 305°
2026-05-07 08:23 47.95070 -139.90077 38000 ft 491 kts 305°
2026-05-07 08:24 47.99136 -139.98258 38000 ft 491 kts 304°
2026-05-07 08:24 48.03156 -140.06509 38000 ft 490 kts 304°
2026-05-07 08:25 48.07152 -140.14814 38000 ft 490 kts 304°
2026-05-07 08:25 48.11107 -140.23092 38000 ft 490 kts 304°
2026-05-07 08:26 48.17048 -140.35598 38000 ft 490 kts 303°
2026-05-07 08:26 48.21004 -140.43960 38000 ft 490 kts 303°
2026-05-07 08:27 48.24934 -140.52294 38000 ft 490 kts 303°
2026-05-07 08:27 48.28874 -140.60676 38000 ft 490 kts 303°
2026-05-07 08:28 48.32814 -140.69082 38000 ft 490 kts 303°
2026-05-07 08:28 48.36739 -140.77482 38000 ft 490 kts 303°
2026-05-07 08:29 48.40662 -140.85906 38000 ft 490 kts 303°
2026-05-07 08:29 48.44556 -140.94289 38000 ft 490 kts 303°
2026-05-07 08:30 48.48477 -141.02759 38000 ft 490 kts 303°
2026-05-07 08:30 48.52378 -141.11211 38000 ft 490 kts 303°
2026-05-07 08:31 48.56272 -141.19674 38000 ft 490 kts 303°
2026-05-07 08:31 48.60158 -141.28148 38000 ft 490 kts 303°
2026-05-07 08:32 48.64041 -141.36640 38000 ft 490 kts 303°
2026-05-07 08:32 48.67898 -141.45102 38000 ft 490 kts 303°
2026-05-07 08:33 48.71768 -141.53619 38000 ft 490 kts 303°
2026-05-07 08:33 48.75624 -141.62132 38000 ft 490 kts 303°
2026-05-07 08:34 48.79488 -141.70691 38000 ft 490 kts 303°
2026-05-07 08:34 48.83335 -141.79240 38000 ft 490 kts 303°
2026-05-07 08:35 48.87192 -141.87837 38000 ft 490 kts 302°
2026-05-07 08:35 48.91027 -141.96412 38000 ft 490 kts 302°
2026-05-07 08:36 48.94843 -142.04972 38000 ft 490 kts 302°
2026-05-07 08:36 48.98653 -142.13548 38000 ft 490 kts 302°
2026-05-07 08:37 49.02474 -142.22173 38000 ft 490 kts 302°
2026-05-07 08:37 49.06292 -142.30821 38000 ft 490 kts 302°
2026-05-07 08:38 49.10108 -142.39493 38000 ft 490 kts 302°
2026-05-07 08:38 49.13908 -142.48155 38000 ft 490 kts 302°
2026-05-07 08:39 49.17700 -142.56829 38000 ft 490 kts 302°
2026-05-07 08:39 49.21480 -142.65502 38000 ft 490 kts 302°
2026-05-07 08:40 49.25255 -142.74191 38000 ft 490 kts 302°
2026-05-07 08:40 49.29014 -142.82872 38000 ft 490 kts 302°
2026-05-07 08:41 49.32780 -142.91599 38000 ft 490 kts 302°
2026-05-07 08:41 49.36535 -143.00328 38000 ft 490 kts 302°
2026-05-07 08:42 49.40295 -143.09097 38000 ft 490 kts 302°
2026-05-07 08:42 49.44039 -143.17859 38000 ft 490 kts 302°
2026-05-07 08:43 49.47786 -143.26655 38000 ft 490 kts 301°
2026-05-07 08:43 49.51511 -143.35429 38000 ft 490 kts 301°
2026-05-07 08:44 49.55235 -143.44230 38000 ft 490 kts 301°
2026-05-07 08:44 49.58324 -143.51554 38000 ft 490 kts 301°
2026-05-07 08:45 49.62036 -143.60380 38000 ft 490 kts 301°
2026-05-07 08:45 49.65735 -143.69205 38000 ft 490 kts 301°
2026-05-07 08:46 49.69446 -143.78087 38000 ft 490 kts 301°
2026-05-07 08:46 49.73131 -143.86937 38000 ft 490 kts 301°
2026-05-07 08:47 49.76819 -143.95825 38000 ft 490 kts 301°
2026-05-07 08:47 49.80478 -144.04672 38000 ft 490 kts 301°
2026-05-07 08:48 49.84168 -144.13623 38000 ft 490 kts 301°
2026-05-07 08:48 49.87812 -144.22493 38000 ft 490 kts 301°
2026-05-07 08:49 49.91475 -144.31440 38000 ft 490 kts 301°
2026-05-07 08:49 49.95135 -144.40412 38000 ft 490 kts 301°
2026-05-07 08:50 49.98776 -144.49364 38000 ft 490 kts 301°
2026-05-07 08:50 50.02389 -144.58280 38000 ft 490 kts 301°
2026-05-07 08:51 50.06018 -144.67267 38000 ft 490 kts 301°
2026-05-07 08:51 50.09642 -144.76272 38000 ft 490 kts 300°
2026-05-07 08:52 50.13265 -144.85304 38000 ft 490 kts 300°
2026-05-07 08:52 50.16861 -144.94299 38000 ft 490 kts 300°
2026-05-07 08:53 50.20454 -145.03317 38000 ft 490 kts 300°
2026-05-07 08:53 50.24047 -145.12369 38000 ft 490 kts 300°
2026-05-07 08:54 50.27632 -145.21432 38000 ft 489 kts 300°
2026-05-07 08:54 50.31211 -145.30509 38000 ft 489 kts 300°
2026-05-07 08:55 50.34791 -145.39623 38000 ft 489 kts 300°
2026-05-07 08:55 50.38337 -145.48680 38000 ft 489 kts 300°
2026-05-07 08:56 50.41896 -145.57803 38000 ft 489 kts 300°
2026-05-07 08:56 50.45447 -145.66937 38000 ft 489 kts 300°
2026-05-07 08:57 50.48993 -145.76091 38000 ft 489 kts 300°
2026-05-07 08:57 50.52507 -145.85192 38000 ft 489 kts 300°
2026-05-07 08:58 50.56044 -145.94387 38000 ft 489 kts 300°
2026-05-07 08:58 50.59564 -146.03572 38000 ft 489 kts 300°
2026-05-07 08:59 50.63084 -146.12786 38000 ft 489 kts 299°
2026-05-07 08:59 50.66569 -146.21942 38000 ft 489 kts 299°
2026-05-07 09:00 50.70070 -146.31176 38000 ft 489 kts 299°
2026-05-07 09:00 50.73558 -146.40405 38000 ft 489 kts 299°
2026-05-07 09:01 50.77053 -146.49687 38000 ft 489 kts 299°
2026-05-07 09:01 50.80521 -146.58929 38000 ft 489 kts 299°
2026-05-07 09:02 50.83975 -146.68169 38000 ft 489 kts 299°
2026-05-07 09:02 50.87449 -146.77496 38000 ft 489 kts 299°
2026-05-07 09:03 50.90883 -146.86750 38000 ft 489 kts 299°
2026-05-07 09:03 50.94330 -146.96071 38000 ft 489 kts 299°
2026-05-07 09:04 50.97766 -147.05397 38000 ft 489 kts 299°
2026-05-07 09:04 51.01211 -147.14779 38000 ft 489 kts 298°
2026-05-07 09:05 51.04619 -147.24097 38000 ft 489 kts 298°
2026-05-07 09:05 51.08035 -147.33470 38000 ft 489 kts 298°
2026-05-07 09:06 51.11436 -147.42837 38000 ft 489 kts 298°
2026-05-07 09:06 51.14845 -147.52259 38000 ft 489 kts 298°
2026-05-07 09:07 51.18218 -147.61618 38000 ft 489 kts 298°
2026-05-07 09:07 51.21612 -147.71069 38000 ft 489 kts 298°
2026-05-07 09:08 51.24976 -147.80472 38000 ft 489 kts 298°
2026-05-07 09:08 51.28346 -147.89927 38000 ft 489 kts 298°
2026-05-07 09:09 51.31711 -147.99402 38000 ft 489 kts 298°
2026-05-07 09:09 51.35060 -148.08869 38000 ft 489 kts 298°
2026-05-07 09:10 51.38399 -148.18344 38000 ft 489 kts 298°
2026-05-07 09:10 51.41744 -148.27870 38000 ft 489 kts 298°
2026-05-07 09:11 51.45060 -148.37349 38000 ft 489 kts 298°
2026-05-07 09:11 51.47844 -148.45336 38000 ft 489 kts 298°
2026-05-07 09:12 51.51151 -148.54855 38000 ft 489 kts 297°
2026-05-07 09:12 51.54465 -148.64431 38000 ft 489 kts 297°
2026-05-07 09:13 51.57769 -148.74017 38000 ft 489 kts 297°
2026-05-07 09:13 51.61040 -148.83542 38000 ft 489 kts 297°
2026-05-07 09:14 51.64324 -148.93141 38000 ft 489 kts 297°
2026-05-07 09:14 51.67617 -149.02802 38000 ft 489 kts 297°
2026-05-07 09:15 51.70871 -149.12390 38000 ft 489 kts 297°
2026-05-07 09:15 51.74131 -149.22030 38000 ft 489 kts 297°
2026-05-07 09:16 51.77400 -149.31735 38000 ft 489 kts 297°
2026-05-07 09:16 51.80634 -149.41375 38000 ft 489 kts 297°
2026-05-07 09:17 51.83862 -149.51036 38000 ft 489 kts 297°
2026-05-07 09:17 51.87092 -149.60742 38000 ft 489 kts 297°
2026-05-07 09:18 51.90313 -149.70462 38000 ft 489 kts 297°
2026-05-07 09:18 51.93521 -149.80185 38000 ft 489 kts 297°
2026-05-07 09:19 51.96722 -149.89929 38000 ft 489 kts 296°
2026-05-07 09:19 51.99676 -149.99787 38000 ft 488 kts 291°
2026-05-07 09:20 52.01795 -150.10269 38001 ft 487 kts 285°
2026-05-07 09:20 52.03478 -150.20946 38000 ft 487 kts 283°
2026-05-07 09:21 52.04992 -150.31691 38000 ft 487 kts 282°
2026-05-07 09:21 52.06437 -150.42385 38000 ft 487 kts 282°
2026-05-07 09:22 52.07878 -150.53163 38000 ft 486 kts 282°
2026-05-07 09:22 52.09324 -150.63967 38000 ft 486 kts 282°
2026-05-07 09:23 52.10765 -150.74715 38000 ft 486 kts 282°
2026-05-07 09:23 52.12204 -150.85431 38000 ft 486 kts 282°
2026-05-07 09:24 52.13656 -150.96239 38000 ft 486 kts 282°
2026-05-07 09:24 52.15099 -151.07013 38000 ft 486 kts 282°
2026-05-07 09:25 52.16535 -151.17767 38000 ft 486 kts 282°
2026-05-07 09:25 52.17970 -151.28566 38000 ft 486 kts 281°
2026-05-07 09:26 52.19388 -151.39292 38000 ft 486 kts 281°
2026-05-07 09:26 52.20807 -151.50097 38000 ft 486 kts 281°
2026-05-07 09:27 52.22226 -151.60966 38000 ft 486 kts 281°
2026-05-07 09:28 52.24320 -151.77160 38000 ft 486 kts 281°
2026-05-07 09:28 52.25702 -151.87940 38000 ft 486 kts 281°
2026-05-07 09:29 52.27078 -151.98757 38000 ft 486 kts 281°
2026-05-07 09:29 52.28451 -152.09637 38000 ft 486 kts 281°
2026-05-07 09:30 52.29808 -152.20463 38000 ft 486 kts 281°
2026-05-07 09:30 52.31154 -152.31294 38000 ft 486 kts 281°
2026-05-07 09:31 52.32494 -152.42164 38000 ft 486 kts 281°
2026-05-07 09:31 52.33822 -152.53021 38000 ft 486 kts 281°
2026-05-07 09:32 52.35133 -152.63823 38000 ft 486 kts 281°
2026-05-07 09:32 52.36445 -152.74724 38000 ft 486 kts 281°
2026-05-07 09:33 52.37738 -152.85562 38000 ft 486 kts 280°
2026-05-07 09:33 52.39028 -152.96463 38000 ft 486 kts 280°
2026-05-07 09:34 52.40306 -153.07343 38000 ft 486 kts 280°
2026-05-07 09:34 52.41576 -153.18258 38000 ft 486 kts 280°
2026-05-07 09:35 52.42836 -153.29176 38000 ft 486 kts 280°
2026-05-07 09:35 52.44080 -153.40041 38000 ft 486 kts 280°
2026-05-07 09:36 52.45319 -153.50962 38000 ft 486 kts 280°
2026-05-07 09:36 52.46547 -153.61883 38000 ft 486 kts 280°
2026-05-07 09:37 52.47761 -153.72775 38000 ft 486 kts 279°
2026-05-07 09:37 52.48773 -153.81926 38000 ft 486 kts 279°
2026-05-07 09:38 52.49974 -153.92877 38000 ft 486 kts 279°
2026-05-07 09:38 52.51155 -154.03747 38000 ft 486 kts 279°
2026-05-07 09:39 52.52337 -154.14719 38000 ft 486 kts 279°
2026-05-07 09:39 52.53501 -154.25626 38000 ft 486 kts 279°
2026-05-07 09:40 52.54666 -154.36635 38000 ft 486 kts 279°
2026-05-07 09:40 52.55814 -154.47592 38000 ft 486 kts 279°
2026-05-07 09:41 52.56945 -154.58493 38000 ft 486 kts 279°
2026-05-07 09:41 52.58076 -154.69491 38000 ft 486 kts 279°
2026-05-07 09:42 52.59195 -154.80472 38000 ft 486 kts 279°
2026-05-07 09:42 52.60297 -154.91406 38000 ft 486 kts 279°
2026-05-07 09:43 52.61396 -155.02403 38000 ft 486 kts 279°
2026-05-07 09:43 52.62485 -155.13409 38000 ft 486 kts 278°
2026-05-07 09:44 52.63559 -155.24376 38000 ft 486 kts 278°
2026-05-07 09:44 52.64633 -155.35447 38000 ft 486 kts 278°
2026-05-07 09:45 52.65689 -155.46450 38000 ft 486 kts 278°
2026-05-07 09:45 52.66733 -155.57435 38000 ft 486 kts 278°
2026-05-07 09:46 52.67770 -155.68459 38000 ft 486 kts 278°
2026-05-07 09:46 52.68799 -155.79513 38000 ft 486 kts 278°
2026-05-07 09:47 52.69814 -155.90537 38000 ft 486 kts 278°
2026-05-07 09:47 52.70816 -156.01536 38000 ft 486 kts 278°
2026-05-07 09:48 52.71814 -156.12604 38000 ft 486 kts 278°
2026-05-07 09:48 52.72802 -156.23677 38000 ft 486 kts 278°
2026-05-07 09:49 52.73773 -156.34680 38000 ft 486 kts 278°
2026-05-07 09:49 52.74740 -156.45762 38000 ft 486 kts 278°
2026-05-07 09:50 52.75694 -156.56819 38000 ft 486 kts 277°
2026-05-07 09:50 52.76638 -156.67884 38000 ft 486 kts 277°
2026-05-07 09:51 52.77574 -156.78986 38000 ft 486 kts 277°
2026-05-07 09:51 52.78493 -156.90002 38000 ft 486 kts 277°
2026-05-07 09:52 52.79408 -157.01111 38000 ft 486 kts 277°
2026-05-07 09:52 52.80310 -157.12183 38000 ft 486 kts 277°
2026-05-07 09:53 52.81198 -157.23216 38000 ft 486 kts 277°
2026-05-07 09:53 52.82082 -157.34325 38000 ft 486 kts 277°
2026-05-07 09:54 52.82954 -157.45429 38000 ft 486 kts 277°
2026-05-07 09:54 52.83811 -157.56471 38000 ft 486 kts 277°
2026-05-07 09:55 52.84664 -157.67604 38000 ft 486 kts 277°
2026-05-07 09:55 52.85504 -157.78705 38000 ft 486 kts 277°
2026-05-07 09:56 52.86336 -157.89846 38000 ft 486 kts 276°
2026-05-07 09:56 52.87153 -158.00924 38000 ft 486 kts 276°
2026-05-07 09:57 52.87966 -158.12086 38000 ft 486 kts 276°
2026-05-07 09:57 52.88766 -158.23232 38000 ft 486 kts 276°
2026-05-07 09:58 52.89553 -158.34344 38000 ft 486 kts 276°
2026-05-07 09:58 52.90332 -158.45485 38000 ft 486 kts 276°
2026-05-07 09:59 52.91095 -158.56558 38000 ft 486 kts 276°
2026-05-07 09:59 52.91852 -158.67697 38000 ft 486 kts 276°
2026-05-07 10:00 52.92598 -158.78834 38000 ft 486 kts 276°
2026-05-07 10:00 52.93337 -158.90026 38000 ft 486 kts 276°
2026-05-07 10:01 52.94064 -159.01194 38000 ft 486 kts 276°
2026-05-07 10:01 52.94778 -159.12343 38000 ft 486 kts 276°
2026-05-07 10:02 52.95483 -159.23510 38000 ft 486 kts 276°
2026-05-07 10:02 52.96174 -159.34623 38000 ft 486 kts 275°
2026-05-07 10:03 52.96859 -159.45838 38000 ft 486 kts 275°
2026-05-07 10:03 52.97420 -159.55134 38000 ft 486 kts 275°
2026-05-07 10:04 52.98189 -159.68123 38000 ft 486 kts 275°
2026-05-07 10:04 52.98734 -159.77486 38000 ft 486 kts 275°
2026-05-07 10:05 52.99376 -159.88697 38000 ft 486 kts 275°
2026-05-07 10:05 52.99975 -159.99834 38000 ft 486 kts 274°
2026-05-07 10:06 53.00494 -160.11051 38000 ft 486 kts 274°
2026-05-07 10:06 53.00966 -160.22234 38000 ft 486 kts 274°
2026-05-07 10:07 53.01415 -160.33431 38000 ft 486 kts 274°
2026-05-07 10:07 53.01848 -160.44639 38000 ft 486 kts 273°
2026-05-07 10:08 53.02270 -160.55883 38000 ft 486 kts 273°
2026-05-07 10:08 53.02678 -160.67030 38000 ft 486 kts 273°
2026-05-07 10:09 53.03079 -160.78262 38000 ft 486 kts 273°
2026-05-07 10:09 53.03471 -160.89544 38000 ft 486 kts 273°
2026-05-07 10:10 53.03852 -161.00760 38000 ft 486 kts 273°
2026-05-07 10:10 53.04220 -161.11945 38000 ft 486 kts 273°
2026-05-07 10:11 53.04581 -161.23198 38000 ft 486 kts 273°
2026-05-07 10:11 53.04930 -161.34428 38000 ft 486 kts 272°
2026-05-07 10:12 53.05268 -161.45623 38000 ft 486 kts 272°
2026-05-07 10:12 53.05597 -161.56849 38000 ft 486 kts 272°
2026-05-07 10:13 53.05915 -161.68098 38000 ft 486 kts 272°
2026-05-07 10:13 53.06223 -161.79355 38000 ft 486 kts 272°
2026-05-07 10:14 53.06520 -161.90571 38000 ft 486 kts 272°
2026-05-07 10:14 53.06807 -162.01834 38000 ft 486 kts 272°
2026-05-07 10:15 53.07082 -162.13079 38000 ft 486 kts 272°
2026-05-07 10:15 53.07346 -162.24276 38000 ft 486 kts 272°
2026-05-07 10:16 53.07602 -162.35540 38000 ft 486 kts 272°
2026-05-07 10:16 53.07845 -162.46765 38000 ft 486 kts 272°
2026-05-07 10:17 53.08078 -162.58001 38000 ft 486 kts 272°
2026-05-07 10:17 53.08302 -162.69273 38000 ft 486 kts 271°
2026-05-07 10:18 53.08514 -162.80548 38000 ft 486 kts 271°
2026-05-07 10:18 53.08715 -162.91767 38000 ft 486 kts 271°
2026-05-07 10:19 53.08907 -163.03033 38000 ft 486 kts 271°
2026-05-07 10:19 53.09086 -163.14239 38000 ft 486 kts 271°
2026-05-07 10:20 53.09257 -163.25565 38000 ft 486 kts 271°
2026-05-07 10:20 53.09416 -163.36810 38000 ft 486 kts 271°
2026-05-07 10:21 53.09564 -163.47996 38000 ft 486 kts 271°
2026-05-07 10:21 53.09703 -163.59325 38000 ft 486 kts 271°
2026-05-07 10:22 53.09830 -163.70523 38000 ft 486 kts 271°
2026-05-07 10:22 53.09946 -163.81791 38000 ft 486 kts 271°
2026-05-07 10:23 53.10052 -163.93004 38000 ft 486 kts 271°
2026-05-07 10:23 53.10148 -164.04275 38000 ft 486 kts 271°
2026-05-07 10:24 53.10233 -164.15513 38000 ft 486 kts 270°
2026-05-07 10:24 53.10307 -164.26812 38000 ft 486 kts 270°
2026-05-07 10:25 53.10371 -164.38079 38000 ft 486 kts 270°
2026-05-07 10:25 53.10424 -164.49334 38000 ft 486 kts 270°
2026-05-07 10:26 53.10466 -164.60526 38000 ft 486 kts 270°
2026-05-07 10:26 53.10498 -164.71818 38000 ft 486 kts 270°
2026-05-07 10:27 53.10519 -164.83098 38000 ft 486 kts 270°
2026-05-07 10:27 53.10530 -164.94363 38000 ft 486 kts 270°
2026-05-07 10:28 53.10529 -165.05624 38000 ft 486 kts 270°
2026-05-07 10:28 53.10521 -165.14985 38000 ft 486 kts 270°
2026-05-07 10:29 53.10502 -165.26260 38000 ft 486 kts 270°
2026-05-07 10:29 53.10471 -165.37457 38000 ft 486 kts 270°
2026-05-07 10:30 53.10406 -165.54325 38000 ft 486 kts 269°
2026-05-07 10:30 53.10349 -165.65651 38000 ft 486 kts 269°
2026-05-07 10:31 53.10282 -165.76902 38000 ft 486 kts 269°
2026-05-07 10:31 53.10204 -165.88157 38000 ft 486 kts 269°
2026-05-07 10:32 53.10115 -165.99413 38000 ft 486 kts 269°
2026-05-07 10:32 53.10016 -166.10689 38000 ft 486 kts 269°
2026-05-07 10:33 53.09907 -166.21871 38000 ft 486 kts 269°
2026-05-07 10:33 53.09786 -166.33163 38000 ft 486 kts 269°
2026-05-07 10:34 53.09654 -166.44439 38000 ft 486 kts 269°
2026-05-07 10:34 53.09513 -166.55689 38000 ft 486 kts 269°
2026-05-07 10:35 53.09361 -166.66875 38000 ft 486 kts 269°
2026-05-07 10:35 53.09198 -166.78155 38000 ft 486 kts 269°
2026-05-07 10:36 53.09024 -166.89433 38000 ft 486 kts 268°
2026-05-07 10:36 53.08841 -167.00637 38000 ft 486 kts 268°
2026-05-07 10:37 53.08646 -167.11874 38000 ft 486 kts 268°
2026-05-07 10:37 53.08440 -167.23148 38000 ft 486 kts 268°
2026-05-07 10:38 53.08224 -167.34396 38000 ft 486 kts 268°
2026-05-07 10:38 53.07998 -167.45644 38000 ft 486 kts 268°
2026-05-07 10:39 53.07760 -167.56904 38000 ft 486 kts 268°
2026-05-07 10:39 53.07512 -167.68152 38000 ft 486 kts 268°
2026-05-07 10:40 53.07254 -167.79382 38000 ft 486 kts 268°
2026-05-07 10:40 53.06986 -167.90556 38000 ft 486 kts 268°
2026-05-07 10:41 53.06706 -168.01816 38000 ft 486 kts 268°
2026-05-07 10:41 53.06416 -168.13065 38000 ft 486 kts 268°
2026-05-07 10:42 53.06116 -168.24248 38000 ft 486 kts 268°
2026-05-07 10:42 53.05805 -168.35464 38000 ft 486 kts 267°
2026-05-07 10:43 53.05483 -168.46726 38000 ft 486 kts 267°
2026-05-07 10:43 53.05151 -168.57933 38000 ft 486 kts 267°
2026-05-07 10:44 53.04806 -168.69207 38000 ft 486 kts 267°
2026-05-07 10:44 53.04451 -168.80455 38000 ft 486 kts 267°
2026-05-07 10:45 53.04090 -168.91593 38000 ft 486 kts 267°
2026-05-07 10:45 53.03713 -169.02853 38000 ft 486 kts 267°
2026-05-07 10:46 53.03327 -169.14085 38000 ft 486 kts 267°
2026-05-07 10:46 53.02929 -169.25341 38000 ft 486 kts 266°
2026-05-07 10:47 53.02523 -169.36519 38000 ft 486 kts 266°
2026-05-07 10:47 53.02105 -169.47754 38000 ft 486 kts 266°
2026-05-07 10:48 53.01677 -169.58924 38000 ft 486 kts 266°
2026-05-07 10:48 53.01237 -169.70140 38000 ft 486 kts 266°
2026-05-07 10:49 53.00785 -169.81384 38000 ft 486 kts 266°
2026-05-07 10:49 53.00323 -169.92542 38000 ft 486 kts 266°
2026-05-07 10:50 53.00551 -170.03791 38002 ft 487 kts 276°
2026-05-07 10:50 53.01709 -170.14902 38001 ft 487 kts 281°
2026-05-07 10:51 53.03223 -170.25901 38000 ft 487 kts 283°
2026-05-07 10:51 53.04838 -170.36764 38000 ft 487 kts 283°
2026-05-07 10:52 53.06490 -170.47747 38000 ft 487 kts 283°
2026-05-07 10:52 53.08114 -170.58664 38000 ft 487 kts 283°
2026-05-07 10:53 53.09708 -170.69583 38000 ft 487 kts 283°
2026-05-07 10:53 53.11282 -170.80567 38000 ft 487 kts 283°
2026-05-07 10:54 53.12832 -170.91575 38000 ft 487 kts 282°
2026-05-07 10:54 53.14357 -171.02571 38000 ft 487 kts 282°
2026-05-07 10:55 53.15609 -171.11712 38000 ft 487 kts 282°
2026-05-07 10:55 53.17107 -171.22768 38000 ft 487 kts 282°
2026-05-07 10:56 53.18587 -171.33803 38000 ft 487 kts 282°
2026-05-07 10:56 53.20045 -171.44795 38000 ft 487 kts 282°
2026-05-07 10:57 53.21499 -171.55850 38000 ft 487 kts 282°
2026-05-07 10:57 53.22940 -171.66908 38000 ft 487 kts 282°
2026-05-07 10:58 53.24368 -171.77957 38000 ft 487 kts 281°
2026-05-07 10:58 53.25788 -171.89036 38000 ft 487 kts 281°
2026-05-07 10:59 53.27196 -172.00116 38000 ft 487 kts 281°
2026-05-07 10:59 53.28591 -172.11183 38000 ft 487 kts 281°
2026-05-07 11:00 53.29972 -172.22235 38000 ft 487 kts 281°
2026-05-07 11:00 53.31345 -172.33308 38000 ft 487 kts 281°
2026-05-07 11:01 53.32712 -172.44423 38000 ft 487 kts 281°
2026-05-07 11:01 53.34065 -172.55523 38000 ft 487 kts 281°
2026-05-07 11:02 53.35408 -172.66622 38000 ft 487 kts 281°
2026-05-07 11:02 53.36747 -172.77787 38000 ft 486 kts 281°
2026-05-07 11:03 53.38067 -172.88887 38000 ft 486 kts 281°
2026-05-07 11:03 53.39381 -173.00028 38000 ft 486 kts 281°
2026-05-07 11:04 53.40683 -173.11169 38000 ft 486 kts 280°
2026-05-07 11:04 53.41974 -173.22310 38000 ft 486 kts 280°
2026-05-07 11:05 53.43251 -173.33419 38000 ft 486 kts 280°
2026-05-07 11:05 53.44524 -173.44592 38000 ft 486 kts 280°
2026-05-07 11:06 53.45784 -173.55749 38000 ft 486 kts 280°
2026-05-07 11:06 53.47034 -173.66923 38000 ft 486 kts 280°
2026-05-07 11:07 53.48278 -173.78137 38000 ft 486 kts 280°
2026-05-07 11:07 53.49507 -173.89316 38000 ft 486 kts 280°
2026-05-07 11:08 53.50728 -174.00531 38000 ft 486 kts 279°
2026-05-07 11:08 53.51931 -174.11672 38000 ft 486 kts 279°
2026-05-07 11:09 53.53131 -174.22899 38000 ft 486 kts 279°
2026-05-07 11:09 53.54322 -174.34145 38000 ft 486 kts 279°
2026-05-07 11:10 53.55491 -174.45284 38000 ft 486 kts 279°
2026-05-07 11:10 53.56659 -174.56517 38000 ft 486 kts 279°
2026-05-07 11:11 53.57815 -174.67752 38000 ft 486 kts 279°
2026-05-07 11:11 53.58961 -174.78984 38000 ft 486 kts 279°
2026-05-07 11:12 53.60094 -174.90214 38000 ft 486 kts 279°
2026-05-07 11:12 53.61220 -175.01468 38000 ft 486 kts 279°
2026-05-07 11:13 53.62332 -175.12703 38000 ft 486 kts 279°
2026-05-07 11:13 53.63435 -175.23958 38000 ft 486 kts 279°
2026-05-07 11:14 53.64528 -175.35226 38000 ft 486 kts 278°
2026-05-07 11:14 53.65611 -175.46501 38000 ft 486 kts 278°
2026-05-07 11:15 53.66682 -175.57777 38000 ft 486 kts 278°
2026-05-07 11:15 53.67746 -175.69088 38000 ft 486 kts 278°
2026-05-07 11:16 53.68790 -175.80304 38000 ft 486 kts 278°
2026-05-07 11:16 53.69831 -175.91614 38000 ft 486 kts 278°
2026-05-07 11:17 53.70865 -176.02969 38000 ft 486 kts 278°
2026-05-07 11:17 53.71877 -176.14194 38000 ft 486 kts 278°
2026-05-07 11:18 53.72887 -176.25534 38000 ft 486 kts 278°
2026-05-07 11:18 53.73884 -176.36842 38000 ft 486 kts 278°
2026-05-07 11:19 53.74871 -176.48168 38000 ft 486 kts 278°
2026-05-07 11:19 53.75846 -176.59493 38000 ft 486 kts 278°
2026-05-07 11:20 53.76808 -176.70779 38000 ft 486 kts 278°
2026-05-07 11:20 53.77608 -176.80269 38000 ft 486 kts 277°
2026-05-07 11:21 53.78553 -176.91603 38000 ft 486 kts 277°
2026-05-07 11:21 53.79486 -177.02925 38000 ft 486 kts 277°
2026-05-07 11:22 53.80404 -177.14209 38000 ft 486 kts 277°
2026-05-07 11:22 53.81317 -177.25562 38000 ft 486 kts 277°
2026-05-07 11:23 53.81659 -177.29844 38000 ft 486 kts 277°
2026-05-07 11:23 53.81664 -177.29912 38000 ft 486 kts 277°
2026-05-07 11:24 53.81670 -177.29977 38000 ft 486 kts 277°
2026-05-07 11:24 53.81676 -177.30058 38000 ft 486 kts 277°
2026-05-07 11:25 53.81681 -177.30124 38000 ft 486 kts 277°
2026-05-07 11:25 53.81685 -177.30177 38000 ft 486 kts 277°
2026-05-07 11:26 53.81691 -177.30242 38000 ft 486 kts 277°
2026-05-07 11:26 53.81698 -177.30333 38000 ft 486 kts 277°
2026-05-07 11:27 53.81703 -177.30397 38000 ft 486 kts 277°
2026-05-07 11:27 53.81707 -177.30453 38000 ft 486 kts 277°
2026-05-07 11:28 53.81713 -177.30520 38000 ft 486 kts 277°
2026-05-07 11:28 53.81719 -177.30599 38000 ft 486 kts 277°
2026-05-07 11:29 53.81724 -177.30664 38000 ft 486 kts 277°
2026-05-07 11:29 53.81730 -177.30733 38000 ft 486 kts 277°
2026-05-07 11:30 53.81734 -177.30790 38000 ft 486 kts 277°
2026-05-07 11:30 53.81741 -177.30869 38000 ft 486 kts 277°
2026-05-07 11:31 53.81746 -177.30936 38000 ft 486 kts 277°
2026-05-07 11:31 53.81751 -177.31003 38000 ft 486 kts 277°
2026-05-07 11:32 53.81760 -177.31111 38000 ft 486 kts 277°
2026-05-07 11:33 53.81764 -177.31166 38000 ft 486 kts 277°
2026-05-07 11:33 53.81769 -177.31233 38000 ft 486 kts 277°
2026-05-07 11:34 53.81776 -177.31315 38000 ft 486 kts 277°
2026-05-07 11:34 53.81781 -177.31373 38000 ft 486 kts 277°
2026-05-07 11:35 53.81786 -177.31438 38000 ft 486 kts 277°
2026-05-07 11:35 53.81791 -177.31504 38000 ft 486 kts 277°
2026-05-07 11:36 53.81796 -177.31571 38000 ft 486 kts 277°
2026-05-07 11:36 53.81803 -177.31650 38000 ft 486 kts 277°
2026-05-07 11:37 53.81808 -177.31717 38000 ft 486 kts 277°
2026-05-07 11:37 53.81812 -177.31771 38000 ft 486 kts 277°
2026-05-07 11:38 53.81817 -177.31837 38000 ft 486 kts 277°
2026-05-07 11:38 53.81824 -177.31921 38000 ft 486 kts 277°
2026-05-07 11:39 53.81829 -177.31987 38000 ft 486 kts 277°
2026-05-07 11:39 53.81835 -177.32053 38000 ft 486 kts 277°
2026-05-07 11:40 53.81839 -177.32106 38000 ft 486 kts 277°
2026-05-07 11:40 53.81845 -177.32189 38000 ft 486 kts 277°
2026-05-07 11:41 53.81851 -177.32255 38000 ft 486 kts 277°
2026-05-07 11:41 53.81856 -177.32326 38000 ft 486 kts 277°
2026-05-07 11:42 53.81861 -177.32381 38000 ft 486 kts 277°
2026-05-07 11:42 53.81867 -177.32461 38000 ft 486 kts 277°
2026-05-07 11:43 53.81872 -177.32528 38000 ft 486 kts 277°
2026-05-07 11:43 53.81878 -177.32595 38000 ft 486 kts 277°
2026-05-07 11:44 53.81883 -177.32660 38000 ft 486 kts 277°
2026-05-07 11:44 53.81887 -177.32713 38000 ft 486 kts 277°
2026-05-07 11:45 53.81894 -177.32806 38000 ft 486 kts 277°
2026-05-07 11:45 53.81898 -177.32859 38000 ft 486 kts 277°
2026-05-07 11:46 53.81904 -177.32925 38000 ft 486 kts 277°
2026-05-07 11:46 53.81909 -177.32990 38000 ft 486 kts 277°
2026-05-07 11:47 53.81915 -177.33071 38000 ft 486 kts 277°
2026-05-07 11:47 53.81922 -177.33151 38000 ft 486 kts 277°
2026-05-07 11:48 53.81926 -177.33201 38000 ft 486 kts 277°
2026-05-07 11:48 53.81931 -177.33266 38000 ft 486 kts 277°
2026-05-07 11:49 53.81936 -177.33331 38000 ft 486 kts 277°
2026-05-07 11:49 53.81942 -177.33409 38000 ft 486 kts 277°
2026-05-07 11:50 53.81947 -177.33473 38000 ft 486 kts 277°
2026-05-07 11:50 53.81952 -177.33538 38000 ft 486 kts 277°
2026-05-07 11:51 53.81958 -177.33603 38000 ft 486 kts 277°
2026-05-07 11:51 53.81964 -177.33682 38000 ft 486 kts 277°
2026-05-07 11:52 53.81969 -177.33746 38000 ft 486 kts 277°
2026-05-07 11:52 53.81974 -177.33811 38000 ft 486 kts 277°
2026-05-07 11:53 53.81979 -177.33876 38000 ft 486 kts 277°
2026-05-07 11:53 53.81985 -177.33954 38000 ft 486 kts 277°
2026-05-07 11:54 53.81990 -177.34019 38000 ft 486 kts 277°
2026-05-07 11:54 53.81996 -177.34084 38000 ft 486 kts 277°
2026-05-07 11:55 53.82000 -177.34137 38000 ft 486 kts 277°
2026-05-07 11:55 53.82007 -177.34227 38000 ft 486 kts 277°
2026-05-07 11:56 53.82012 -177.34292 38000 ft 486 kts 277°
2026-05-07 11:56 53.82017 -177.34357 38000 ft 486 kts 277°
2026-05-07 11:57 53.82021 -177.34410 38000 ft 486 kts 277°
2026-05-07 11:57 53.82029 -177.34501 38000 ft 486 kts 277°
2026-05-07 11:58 53.82033 -177.34556 38000 ft 486 kts 277°
2026-05-07 11:58 53.82038 -177.34621 38000 ft 486 kts 277°
2026-05-07 11:59 53.82043 -177.34687 38000 ft 486 kts 277°
2026-05-07 11:59 53.82050 -177.34766 38000 ft 486 kts 277°
2026-05-07 12:00 53.82055 -177.34831 38000 ft 486 kts 277°
2026-05-07 12:00 53.82060 -177.34896 38000 ft 486 kts 277°
2026-05-07 12:01 53.82065 -177.34962 38000 ft 486 kts 277°
2026-05-07 12:01 53.82071 -177.35040 38000 ft 486 kts 277°
2026-05-07 12:02 53.82077 -177.35107 38000 ft 486 kts 277°
2026-05-07 12:02 53.82082 -177.35174 38000 ft 486 kts 277°
2026-05-07 12:03 53.82087 -177.35238 38000 ft 486 kts 277°
2026-05-07 12:03 53.82093 -177.35318 38000 ft 486 kts 277°
2026-05-07 12:04 53.82098 -177.35383 38000 ft 486 kts 277°
2026-05-07 12:04 53.82104 -177.35448 38000 ft 486 kts 277°
2026-05-07 12:05 53.82108 -177.35500 38000 ft 486 kts 277°
2026-05-07 12:05 53.82115 -177.35591 38000 ft 486 kts 277°
2026-05-07 12:06 53.82120 -177.35656 38000 ft 486 kts 277°
2026-05-07 12:06 53.82124 -177.35709 38000 ft 486 kts 277°
2026-05-07 12:07 53.82129 -177.35774 38000 ft 486 kts 277°
2026-05-07 12:07 53.82137 -177.35865 38000 ft 486 kts 277°
2026-05-07 12:08 53.82141 -177.35917 38000 ft 486 kts 277°
2026-05-07 12:08 53.82146 -177.35982 38000 ft 486 kts 277°
2026-05-07 12:09 53.82151 -177.36047 38000 ft 486 kts 277°
2026-05-07 12:09 53.82156 -177.36112 38000 ft 486 kts 277°
2026-05-07 12:10 53.82162 -177.36190 38000 ft 486 kts 277°
2026-05-07 12:10 53.82167 -177.36255 38000 ft 486 kts 277°
2026-05-07 12:11 53.82173 -177.36321 38000 ft 486 kts 277°
2026-05-07 12:11 53.82178 -177.36387 38000 ft 486 kts 277°
2026-05-07 12:12 53.82184 -177.36465 38000 ft 486 kts 277°
2026-05-07 12:12 53.82189 -177.36530 38000 ft 486 kts 277°
2026-05-07 12:13 53.82194 -177.36595 38000 ft 486 kts 277°
2026-05-07 12:13 53.82199 -177.36660 38000 ft 486 kts 277°
2026-05-07 12:14 53.82206 -177.36739 38000 ft 486 kts 277°
2026-05-07 12:14 53.82211 -177.36804 38000 ft 486 kts 277°
2026-05-07 12:15 53.82216 -177.36868 38000 ft 486 kts 277°
2026-05-07 12:15 53.82221 -177.36934 38000 ft 486 kts 277°
2026-05-07 12:16 53.82227 -177.37012 38000 ft 486 kts 277°
2026-05-07 12:16 53.82232 -177.37079 38000 ft 486 kts 277°
2026-05-07 12:17 53.82238 -177.37144 38000 ft 486 kts 277°
2026-05-07 12:17 53.82242 -177.37196 38000 ft 486 kts 277°
2026-05-07 12:18 53.82247 -177.37261 38000 ft 486 kts 277°
2026-05-07 12:18 53.82254 -177.37351 38000 ft 486 kts 277°
2026-05-07 12:19 53.82259 -177.37416 38000 ft 486 kts 277°
2026-05-07 12:19 53.82263 -177.37470 38000 ft 486 kts 277°
2026-05-07 12:20 53.82269 -177.37537 38000 ft 486 kts 277°
2026-05-07 12:20 53.82275 -177.37615 38000 ft 486 kts 277°
2026-05-07 12:21 53.82280 -177.37680 38000 ft 486 kts 277°
2026-05-07 12:21 53.82285 -177.37745 38000 ft 486 kts 277°
2026-05-07 12:22 53.82290 -177.37810 38000 ft 486 kts 277°
2026-05-07 12:22 53.82296 -177.37888 38000 ft 486 kts 277°
2026-05-07 12:23 53.82301 -177.37953 38000 ft 486 kts 277°
2026-05-07 12:23 53.82307 -177.38018 38000 ft 486 kts 277°
2026-05-07 12:24 53.82312 -177.38083 38000 ft 486 kts 277°
2026-05-07 12:24 53.82317 -177.38148 38000 ft 486 kts 277°
2026-05-07 12:25 53.82323 -177.38226 38000 ft 486 kts 277°
2026-05-07 12:25 53.82328 -177.38291 38000 ft 486 kts 277°
2026-05-07 12:26 53.82333 -177.38356 38000 ft 486 kts 277°
2026-05-07 12:26 53.82338 -177.38421 38000 ft 486 kts 277°
2026-05-07 12:27 53.82345 -177.38500 38000 ft 486 kts 277°
2026-05-07 12:27 53.82350 -177.38565 38000 ft 486 kts 277°
2026-05-07 12:28 53.82355 -177.38631 38000 ft 486 kts 277°
2026-05-07 12:28 53.82360 -177.38696 38000 ft 486 kts 277°
2026-05-07 12:29 53.82366 -177.38774 38000 ft 486 kts 277°
2026-05-07 12:29 53.82371 -177.38839 38000 ft 486 kts 277°
2026-05-07 12:30 53.82376 -177.38904 38000 ft 486 kts 277°
2026-05-07 12:30 53.82381 -177.38956 38000 ft 486 kts 277°
2026-05-07 12:31 53.82386 -177.39021 38000 ft 486 kts 277°
2026-05-07 12:31 53.82393 -177.39111 38000 ft 486 kts 277°
2026-05-07 12:32 53.82398 -177.39177 38000 ft 486 kts 277°
2026-05-07 12:32 53.82402 -177.39229 38000 ft 486 kts 277°
2026-05-07 12:33 53.82410 -177.39333 38000 ft 486 kts 277°
2026-05-07 12:33 53.82415 -177.39398 38000 ft 486 kts 277°
2026-05-07 12:34 53.82420 -177.39463 38000 ft 486 kts 277°
2026-05-07 12:34 53.82428 -177.39554 38000 ft 486 kts 277°
2026-05-07 12:35 53.82432 -177.39607 38000 ft 486 kts 277°
2026-05-07 12:35 53.82437 -177.39671 38000 ft 486 kts 277°
2026-05-07 12:36 53.82442 -177.39737 38000 ft 486 kts 277°
2026-05-07 12:36 53.82448 -177.39816 38000 ft 486 kts 277°
2026-05-07 12:37 53.82453 -177.39880 38000 ft 486 kts 277°
2026-05-07 12:37 53.82458 -177.39945 38000 ft 486 kts 277°
2026-05-07 12:38 53.82464 -177.40010 38000 ft 486 kts 277°
2026-05-07 12:38 53.82470 -177.40088 38000 ft 486 kts 277°
2026-05-07 12:39 53.82475 -177.40153 38000 ft 486 kts 277°
2026-05-07 12:39 53.82480 -177.40218 38000 ft 486 kts 277°
2026-05-07 12:40 53.82485 -177.40283 38000 ft 486 kts 277°
2026-05-07 12:40 53.82490 -177.40348 38000 ft 486 kts 277°
2026-05-07 12:41 53.82496 -177.40426 38000 ft 486 kts 277°
2026-05-07 12:41 53.82501 -177.40491 38000 ft 486 kts 277°
2026-05-07 12:42 53.82506 -177.40555 38000 ft 486 kts 277°
2026-05-07 12:42 53.82512 -177.40620 38000 ft 486 kts 277°
2026-05-07 12:43 53.82518 -177.40698 38000 ft 486 kts 277°
2026-05-07 12:43 53.82523 -177.40763 38000 ft 486 kts 277°
2026-05-07 12:44 53.82528 -177.40828 38000 ft 486 kts 277°
2026-05-07 12:44 53.82533 -177.40893 38000 ft 486 kts 277°
2026-05-07 12:45 53.82539 -177.40970 38000 ft 486 kts 277°
2026-05-07 12:45 53.82544 -177.41035 38000 ft 486 kts 277°
2026-05-07 12:46 53.82549 -177.41100 38000 ft 486 kts 277°
2026-05-07 12:46 53.82554 -177.41165 38000 ft 486 kts 277°
2026-05-07 12:47 53.82559 -177.41230 38000 ft 486 kts 277°
2026-05-07 12:47 53.82566 -177.41308 38000 ft 486 kts 277°
2026-05-07 12:48 53.82571 -177.41373 38000 ft 486 kts 277°
2026-05-07 12:48 53.82576 -177.41438 38000 ft 486 kts 277°
2026-05-07 12:49 53.82581 -177.41503 38000 ft 486 kts 277°
2026-05-07 12:49 53.82587 -177.41581 38000 ft 486 kts 277°
2026-05-07 12:50 53.82592 -177.41646 38000 ft 486 kts 277°
2026-05-07 12:50 53.82597 -177.41711 38000 ft 486 kts 277°
2026-05-07 12:51 53.82602 -177.41775 38000 ft 486 kts 277°
2026-05-07 12:51 53.82608 -177.41853 38000 ft 486 kts 277°
2026-05-07 12:52 53.82614 -177.41918 38000 ft 486 kts 277°
2026-05-07 12:52 53.82619 -177.41983 38000 ft 486 kts 277°
2026-05-07 12:53 53.82624 -177.42048 38000 ft 486 kts 277°
2026-05-07 12:53 53.82630 -177.42126 38000 ft 486 kts 277°
2026-05-07 12:54 53.82635 -177.42191 38000 ft 486 kts 277°
2026-05-07 12:54 53.82640 -177.42256 38000 ft 486 kts 277°
2026-05-07 12:55 53.82645 -177.42321 38000 ft 486 kts 277°
2026-05-07 12:55 53.82651 -177.42399 38000 ft 486 kts 277°
2026-05-07 12:56 53.82656 -177.42464 38000 ft 486 kts 277°
2026-05-07 12:56 53.82662 -177.42529 38000 ft 486 kts 277°
2026-05-07 12:57 53.82666 -177.42581 38000 ft 486 kts 277°
2026-05-07 12:57 53.82673 -177.42672 38000 ft 486 kts 277°
2026-05-07 12:58 53.82678 -177.42737 38000 ft 486 kts 277°
2026-05-07 12:58 53.82682 -177.42792 38000 ft 486 kts 277°
2026-05-07 12:59 53.82687 -177.42858 38000 ft 486 kts 277°
2026-05-07 12:59 53.82694 -177.42948 38000 ft 486 kts 277°
2026-05-07 13:00 53.82699 -177.43001 38000 ft 486 kts 277°
2026-05-07 13:00 53.82704 -177.43066 38000 ft 486 kts 277°
2026-05-07 13:01 53.82709 -177.43131 38000 ft 486 kts 277°
2026-05-07 13:01 53.82714 -177.43196 38000 ft 486 kts 277°
2026-05-07 13:02 53.82720 -177.43274 38000 ft 486 kts 277°
2026-05-07 13:02 53.82725 -177.43339 38000 ft 486 kts 277°
2026-05-07 13:03 53.82730 -177.43404 38000 ft 486 kts 277°
2026-05-07 13:03 53.82735 -177.43469 38000 ft 486 kts 277°
2026-05-07 13:04 53.82741 -177.43548 38000 ft 486 kts 277°
2026-05-07 13:04 53.82746 -177.43612 38000 ft 486 kts 277°
2026-05-07 13:05 53.82752 -177.43677 38000 ft 486 kts 277°
2026-05-07 13:05 53.82757 -177.43742 38000 ft 486 kts 277°
2026-05-07 13:06 53.82762 -177.43807 38000 ft 486 kts 277°
2026-05-07 13:06 53.82768 -177.43885 38000 ft 486 kts 277°
2026-05-07 13:07 53.82773 -177.43950 38000 ft 486 kts 277°
2026-05-07 13:07 53.82778 -177.44015 38000 ft 486 kts 277°
2026-05-07 13:08 53.82783 -177.44080 38000 ft 486 kts 277°
2026-05-07 13:08 53.82789 -177.44159 38000 ft 486 kts 277°
2026-05-07 13:09 53.82794 -177.44224 38000 ft 486 kts 277°
2026-05-07 13:09 53.82800 -177.44289 38000 ft 486 kts 277°
2026-05-07 13:10 53.82804 -177.44342 38000 ft 486 kts 277°
2026-05-07 13:10 53.82811 -177.44434 38000 ft 486 kts 277°
2026-05-07 13:11 53.82816 -177.44498 38000 ft 486 kts 277°
2026-05-07 13:11 53.82821 -177.44563 38000 ft 486 kts 277°
2026-05-07 13:12 53.82825 -177.44616 38000 ft 486 kts 277°
2026-05-07 13:12 53.82832 -177.44707 38000 ft 486 kts 277°
2026-05-07 13:13 53.82837 -177.44772 38000 ft 486 kts 277°
2026-05-07 13:13 53.82841 -177.44824 38000 ft 486 kts 277°
2026-05-07 13:14 53.82847 -177.44890 38000 ft 486 kts 277°
2026-05-07 13:14 53.82854 -177.44981 38000 ft 486 kts 277°
2026-05-07 13:15 53.82858 -177.45033 38000 ft 486 kts 277°
2026-05-07 13:15 53.82863 -177.45099 38000 ft 486 kts 277°
2026-05-07 13:16 53.82868 -177.45164 38000 ft 486 kts 277°
2026-05-07 13:16 53.82873 -177.45228 38000 ft 486 kts 277°
2026-05-07 13:17 53.82879 -177.45307 38000 ft 486 kts 277°
2026-05-07 13:17 53.82884 -177.45371 38000 ft 486 kts 277°
2026-05-07 13:18 53.82889 -177.45436 38000 ft 486 kts 277°
2026-05-07 13:18 53.82894 -177.45501 38000 ft 486 kts 277°
2026-05-07 13:19 53.82901 -177.45580 38000 ft 486 kts 277°
2026-05-07 13:19 53.82906 -177.45645 38000 ft 486 kts 277°
2026-05-07 13:20 53.82911 -177.45710 38000 ft 486 kts 277°
2026-05-07 13:20 53.82916 -177.45775 38000 ft 486 kts 277°
2026-05-07 13:21 53.82922 -177.45853 38000 ft 486 kts 277°
2026-05-07 13:21 53.82927 -177.45918 38000 ft 486 kts 277°
2026-05-07 13:22 53.82932 -177.45983 38000 ft 486 kts 277°
2026-05-07 13:22 53.82937 -177.46048 38000 ft 486 kts 277°
2026-05-07 13:23 53.82942 -177.46113 38000 ft 486 kts 277°
2026-05-07 13:23 53.82948 -177.46192 38000 ft 486 kts 277°
2026-05-07 13:24 53.82953 -177.46256 38000 ft 486 kts 277°
2026-05-07 13:24 53.82959 -177.46321 38000 ft 486 kts 277°
2026-05-07 13:25 53.82964 -177.46386 38000 ft 486 kts 277°
2026-05-07 13:25 53.82970 -177.46464 38000 ft 486 kts 277°
2026-05-07 13:26 53.82975 -177.46529 38000 ft 486 kts 277°
2026-05-07 13:26 53.82980 -177.46596 38000 ft 486 kts 277°
2026-05-07 13:27 53.82984 -177.46648 38000 ft 486 kts 277°
2026-05-07 13:27 53.82991 -177.46738 38000 ft 486 kts 277°
2026-05-07 13:28 53.82996 -177.46805 38000 ft 486 kts 277°
2026-05-07 13:28 53.83000 -177.46857 38000 ft 486 kts 277°
2026-05-07 13:29 53.83006 -177.46922 38000 ft 486 kts 277°
2026-05-07 13:29 53.83013 -177.47013 38000 ft 486 kts 277°
2026-05-07 13:30 53.83018 -177.47078 38000 ft 486 kts 277°
2026-05-07 13:30 53.83022 -177.47130 38000 ft 486 kts 277°
2026-05-07 13:31 53.83027 -177.47196 38000 ft 486 kts 277°
2026-05-07 13:31 53.83034 -177.47287 38000 ft 486 kts 277°
2026-05-07 13:32 53.83039 -177.47352 38000 ft 486 kts 277°
2026-05-07 13:32 53.83043 -177.47404 38000 ft 486 kts 277°
2026-05-07 13:33 53.83049 -177.47484 38000 ft 486 kts 277°
2026-05-07 13:33 53.83054 -177.47537 38000 ft 486 kts 277°
2026-05-07 13:34 53.83062 -177.47644 38000 ft 486 kts 277°
2026-05-07 13:35 53.83066 -177.47698 38000 ft 486 kts 277°
2026-05-07 13:35 53.83073 -177.47789 38000 ft 486 kts 277°
2026-05-07 13:36 53.83077 -177.47842 38000 ft 486 kts 277°
2026-05-07 13:36 53.83082 -177.47908 38000 ft 486 kts 277°
2026-05-07 13:37 53.83088 -177.47974 38000 ft 486 kts 277°
2026-05-07 13:37 53.83094 -177.48053 38000 ft 486 kts 277°
2026-05-07 13:38 53.83099 -177.48118 38000 ft 486 kts 277°
2026-05-07 13:38 53.83104 -177.48184 38000 ft 486 kts 277°
2026-05-07 13:39 53.83109 -177.48250 38000 ft 486 kts 277°
2026-05-07 13:39 53.83115 -177.48329 38000 ft 486 kts 277°
2026-05-07 13:40 53.83120 -177.48394 38000 ft 486 kts 277°
2026-05-07 13:40 53.83126 -177.48461 38000 ft 486 kts 277°
2026-05-07 13:41 53.83130 -177.48514 38000 ft 486 kts 277°
2026-05-07 13:41 53.83137 -177.48606 38000 ft 486 kts 277°
2026-05-07 13:42 53.83142 -177.48671 38000 ft 486 kts 277°
2026-05-07 13:42 53.83146 -177.48728 38000 ft 486 kts 277°
2026-05-07 13:43 53.83148 -177.48748 38000 ft 486 kts 277°
2026-05-07 13:43 53.83155 -177.48832 38000 ft 486 kts 277°
2026-05-07 13:44 53.83160 -177.48898 38000 ft 486 kts 277°
2026-05-07 13:44 53.83165 -177.48963 38000 ft 486 kts 277°
2026-05-07 13:45 53.83168 -177.49000 38000 ft 486 kts 277°
2026-05-07 13:45 53.83172 -177.49061 38000 ft 486 kts 277°
2026-05-07 13:46 53.83176 -177.49110 38000 ft 486 kts 277°
2026-05-07 13:46 53.83181 -177.49172 38000 ft 486 kts 277°
2026-05-07 13:47 53.83187 -177.49251 38000 ft 486 kts 277°
2026-05-07 13:47 53.83192 -177.49319 38000 ft 486 kts 277°
2026-05-07 13:48 53.83197 -177.49377 38000 ft 486 kts 277°
2026-05-07 13:48 53.83202 -177.49444 38000 ft 486 kts 277°
2026-05-07 13:49 53.83207 -177.49510 38000 ft 486 kts 277°
2026-05-07 13:49 53.83214 -177.49592 38000 ft 486 kts 277°
2026-05-07 13:50 53.83219 -177.49657 38000 ft 486 kts 277°
2026-05-07 13:50 53.83223 -177.49713 38000 ft 486 kts 277°
2026-05-07 13:51 53.83228 -177.49781 38000 ft 486 kts 277°
2026-05-07 13:51 53.83235 -177.49867 38000 ft 486 kts 277°
2026-05-07 13:52 53.83239 -177.49922 38000 ft 486 kts 277°
2026-05-07 13:52 53.83245 -177.49992 38000 ft 486 kts 277°
2026-05-07 13:53 53.83249 -177.50050 38000 ft 486 kts 277°
2026-05-07 13:53 53.83255 -177.50116 38000 ft 486 kts 277°
2026-05-07 13:54 53.83261 -177.50196 38000 ft 486 kts 277°
2026-05-07 13:54 53.83266 -177.50262 38000 ft 486 kts 277°
2026-05-07 13:55 53.83270 -177.50317 38000 ft 486 kts 277°
2026-05-07 13:55 53.83276 -177.50395 38000 ft 486 kts 277°
2026-05-07 13:56 53.83281 -177.50456 38000 ft 486 kts 277°
2026-05-07 13:56 53.83285 -177.50508 38000 ft 486 kts 277°
2026-05-07 13:57 53.83290 -177.50571 38000 ft 486 kts 277°